Regional Weather Roundup
Issued by NWS

Home | Current Version | Previous Version | Text Only | Print | Product List | Glossary On
Versions: 1 2 3 4 5 6 7 8 9 10 11 12 13 14 15 16 17 18 19 20 21 22 23 24 25 26 27 28 29 30 31 32 33 34 35 36 37 38 39 40 41 42 43 44 45 46 47 48 49 50
000
ASUS46 KSEW 040410
RWRWA

WASHINGTON REGIONAL WEATHER ROUNDUP
NATIONAL WEATHER SERVICE SEATTLE WA
900 PM PDT TUE MAY 03 2016

NOTE:"FAIR" INDICATES FEW OR NO CLOUDS BELOW 12,000 FEET WITH NO
SIGNIFICANT WEATHER AND/OR OBSTRUCTIONS TO VISIBILITY.

WAZ505-507>509-040500-
SEATTLE, TACOMA, EVERETT, AND VICINITY

CITY           SKY/WX    TMP DP  RH WIND       PRES   REMARKS
EVERETT        CLOUDY    54  47  77 N7        30.08R
BOEING FIELD   CLOUDY    61  52  72 VRB5      30.07R
RENTON         CLOUDY    63  51  65 N10       30.06R
SEATAC AIRPORT CLOUDY    59  52  77 NW3       30.08R
JBLM-MCCHORD   CLOUDY    61  52  72 W6        30.07R
PUYALLUP       MOCLDY    59  54  82 CALM      30.08R
BREMERTON      CLOUDY    57  52  82 CALM      30.09R
JBLM-FT LEWIS  CLOUDY    60  52  73 W6        30.06R
TACOMA NARROWS CLOUDY    60  50  69 W5        30.08R
$$

WAZ001-503-506-510-514-515-040500-
NORTH INTERIOR

CITY           SKY/WX    TMP DP  RH WIND       PRES   REMARKS
BELLINGHAM     CLOUDY    60  53  77 CALM      30.06R
FRIDAY HARBOR  CLOUDY    55  47  74 SW7       30.07R
EASTSOUND      LGT RAIN  59  54  82 S5        30.04S
PORT ANGELES   CLOUDY    51  46  83 W13       30.11R
EDIZ HOOK      FAIR      52  47  81 W17G26    30.10R
PORT TOWNSEND  CLOUDY    55  48  76 NW8G15    30.09R
NAS WHIDBEY    CLOUDY    54  49  83 SW14      30.12R
ARLINGTON      CLOUDY    55  43  62 NW5       30.11R
BURLINGTON     CLEAR     55  48  76 SW6       30.07S
$$

WAZ020-022-039-040-504-511-512-040500-
SOUTHWEST INTERIOR

CITY           SKY/WX    TMP DP  RH WIND       PRES   REMARKS
SHELTON        CLOUDY    56  49  77 SW13G20   30.05R
OLYMPIA        CLOUDY    59  48  67 SW5       30.07R
CHEHALIS       FAIR      59  52  77 CALM      30.09R
KELSO          CLOUDY    59  48  67 W8        30.12R
VANCOUVER      CLOUDY    62  51  67 VRB6      30.05R
SCAPPOOSE, OR  CLOUDY    61  49  64 N6        30.05R
PORTLAND, OR   CLOUDY    63  51  65 NW7       30.06R
$$

WAZ021-516-517-040500-
WASHINGTON COAST

CITY           SKY/WX    TMP DP  RH WIND       PRES   REMARKS
FORKS          CLOUDY    50  47  89 NW3       30.15R
HOQUIAM        CLOUDY    53  49  86 W13       30.11R
ASTORIA, OR    CLOUDY    55  49  80 N13       30.12R
$$

WAZ019-023-024-040-518-519-040500-
CASCADE MOUNTAINS AND COLUMBIA GORGE

CITY           SKY/WX    TMP DP  RH WIND       PRES   REMARKS
STAMPEDE PASS  LGT RAIN  49  45  86 W3        30.11R
TROUTDALE, OR  CLOUDY    64  50  60 VRB5      30.05R
THE DALLES, OR CLOUDY    71  46  40 W9        29.98R
$$

WAZ026-027-041>044-520-521-040500-
EAST SLOPES

CITY           SKY/WX    TMP DP  RH WIND       PRES   REMARKS
OMAK           MOCLDY    67  41  38 N6        29.91R
WENATCHEE      CLOUDY    67  47  48 NW17      29.95R
ELLENSBURG     CLOUDY    64  50  60 NW17G29   29.98R
YAKIMA         LGT RAIN  71  45  39 W13       29.97R
$$

WAZ028-034-035-040500-
COLUMBIA BASIN

CITY           SKY/WX    TMP DP  RH WIND       PRES   REMARKS
EPHRATA        MOCLDY    72  44  36 W17       29.89R
MOSES LAKE     MOCLDY    71  39  31 W6        29.89R
PASCO          MOCLDY    79  44  28 W14       29.86R
HERMISTON, OR  CLOUDY    74  44  34 W15       29.87R
$$

WAZ036>038-040500-
NORTHEAST WASHINGTON

CITY           SKY/WX    TMP DP  RH WIND       PRES   REMARKS
SPOKANE GEIGER MOCLDY    69  38  32 SW3       29.96R
SPOKANE FELTS  MOCLDY    62  41  46 NE5       29.94S
FAIRCHILD AFB  MOCLDY    67  37  32 CALM      29.96R
COEURDALENE,ID PTCLDY    64  43  45 CALM      29.94R
DEER PARK      MOCLDY    57  43  59 NE3       29.95S
$$

WAZ029>033-040500-
SOUTHEAST WASHINGTON

CITY           SKY/WX    TMP DP  RH WIND       PRES   REMARKS
PULLMAN        PTCLDY    60  46  59 CALM      29.98R
LEWISTON, ID   PTCLDY    73  45  36 SE3       29.91R
WALLA WALLA    PTCLDY    73  41  31 SE5       29.87R
PENDLETON, OR  MOCLDY    70  42  36 W18G29    29.91R
$$



USA.gov is the U.S. government's official web portal to all federal, state and local government web resources and services.